Deer Park, WA
on Wednesday, November 28, 2012

Wednesday
Previous Day Next Day
Daily Summary
 ActualAverageRecord
Temperature
Mean Temperature °F 29°F  
Max Temperature 40°F 36°F 54°F (2014)
Min Temperature 29°F 23°F 3°F (2006)
Degree Days
Heating Degree Days 30 36  
Month to date heating degree days 774 864  
Since 1 July heating degree days 1686 1932  
Cooling Degree Days 0 0  
Month to date cooling degree days 0 0  
Year to date cooling degree days 232 187  
Moisture
Dew Point 30°F   
Average Humidity 82    
Maximum Humidity 100    
Minimum Humidity 64    
Precipitation
Precipitation 0.12 in 0.12 in 0.86 in (2001)
Month to date precipitation 3.67 3.08  
Year to date precipitation 23.67 19.14  
Wind
Wind Speed 6 mph   
Max Wind Speed 15 mph   
Max Gust Speed 21 mph   
Visibility 10 miles   
Events Rain   

Key: T is trace of precipitation, MM is missing value
Source: NWS Daily Summary
Time(PST)TemperatureDew PointHumidity Pressure Visibility Wind DirectionWind SpeedGust SpeedPrecipitationEvents Conditions
12:53 AM 30.9°F 27.0°F 85% 30.14 in 10.0 miles NNW 3.5 mph - N/A   Clear
1:53 AM 30.0°F 27.0°F 88% 30.12 in 10.0 miles North 4.6 mph - N/A   Clear
2:53 AM 28.9°F 26.1°F 89% 30.11 in 10.0 miles North 4.6 mph - N/A   Clear
3:53 AM 32.0°F 28.0°F 85% 30.10 in 10.0 miles NNE 3.5 mph - N/A   Clear
4:53 AM 30.9°F 27.0°F 85% 30.09 in 10.0 miles North 6.9 mph - N/A   Clear
5:53 AM 30.9°F 27.0°F 85% 30.07 in 10.0 miles NNE 8.1 mph - N/A   Clear
6:53 AM 30.0°F 27.0°F 88% 30.06 in 10.0 miles NNE 6.9 mph - N/A   Clear
7:53 AM 32.0°F 28.0°F 85% 30.05 in 10.0 miles NNE 8.1 mph - N/A   Clear
8:53 AM 34.0°F 28.0°F 79% 30.03 in 10.0 miles NNE 10.4 mph - N/A   Clear
9:53 AM 37.0°F 28.9°F 73% 30.01 in 10.0 miles NNE 11.5 mph - N/A   Clear
10:53 AM 39.0°F 28.9°F 67% 29.98 in 10.0 miles NNE 9.2 mph - N/A   Clear
11:53 AM 39.0°F 30.0°F 70% 29.94 in 10.0 miles NNE 9.2 mph - N/A   Clear
12:53 PM 39.0°F 30.0°F 70% 29.92 in 10.0 miles NNE 5.8 mph - N/A   Clear
1:53 PM 39.0°F 30.0°F 70% 29.88 in 10.0 miles NNE 5.8 mph - N/A   Partly Cloudy
2:53 PM 37.9°F 30.0°F 73% 29.88 in 10.0 miles NNE 4.6 mph - N/A   Mostly Cloudy
3:53 PM 37.0°F 30.0°F 76% 29.85 in 10.0 miles WSW 6.9 mph - N/A   Mostly Cloudy
4:53 PM 36.0°F 28.9°F 76% 29.86 in 10.0 miles North 3.5 mph - N/A   Overcast
5:53 PM 36.0°F 30.9°F 82% 29.88 in 10.0 miles Calm Calm - N/A   Overcast
6:53 PM 34.0°F 33.1°F 96% 29.88 in 6.0 miles NE 4.6 mph - 0.01 in Rain Light Rain
7:53 PM 34.0°F 33.1°F 96% 29.88 in 7.0 miles NNE 5.8 mph - 0.06 in Rain Light Rain
8:53 PM 35.1°F 34.0°F 96% 29.87 in 9.0 miles North 4.6 mph - 0.03 in   Overcast
9:53 PM 35.1°F 34.0°F 96% 29.88 in 10.0 miles North 4.6 mph - 0.02 in   Overcast
10:53 PM 35.1°F 34.0°F 96% 29.88 in 10.0 miles Calm Calm - 0.00 in   Overcast
11:53 PM 34.0°F 33.1°F 96% 29.89 in 10.0 miles Calm Calm - N/A   Overcast
Moon Phase
Nov. 28 Dec. 06 Dec. 13 Dec. 20 Dec. 28
Sunrise:07:15 AM (PST) Moon Rise:04:18 PM (PST)11/28
Sunset:04:00 PM (PST) Moon Set:07:16 AM (PST)11/28

Copyright © 2014 The Weather Underground, Inc.